THOR AGENA D R/B, 815

Orbit data source: Space-Track

THOR AGENA D R/B, 815 is space debris in SSO originally from a launch on Thu, 18 Jun 1964 UTC launched from the Air Force Western Test Range (AFWTR). Debris objects in space refer to the collection of defunct objects orbiting the Earth. Examples of debris include non-operational satellites, rocket bodies, and fragments generated from explosions, collisions, or faulty payload assembly.

Loading next visibility...
THOR AGENA D R/B details
Identifier
815, 1964-031C
Orbit
SSO
Last TLE update16 hours ago
Origin
Flag of USUSAF SSD (US)
ManufacturerLMSC
MissionSpacecraft
Bus & MotorAGENA D, Unknown motor
Mass600 kg wet, 600 kg dry
Launch date (UTC)
1964-06-18 (61 years ago)
Launch vehicleUnknown
Launch site
Air Force Western Test Range (AFWTR)
Object type
Payload
Rocket body
Debris
Shape & HBRCyl + 1 Nozzle, 6.3 m
Radar Cross Section8.306 m², Large (>1 m²)

Expand to show TLE details & history

TLE from 16 hours ago
0 THOR AGENA D R/B
1   815U 64031C   25014.61808998  .00000271  00000-0  13066-3 0  9998
2   815  99.8292 256.1433 0011278 324.0880  35.9538 14.28183969147391
Epoch: 2025-01-14T14:50Z
Definitive object data (Epoch: 2025-01-14T14:50:02.974Z)
Latitude-0.00003°
Longitude-80.69129°
Altitude794.146 km
Speed7.46 km/s
True Right ascension17h 04m 34s
True Declination0° 00' 00"
Sunlit
Object was in daylight at TLE epoch
Visualization TLE readout
Latitude-33.37314°
Longitude93.54617°
Altitude812.873 km
Speed7.444 km/s
Apparent Right ascension01h 06m 08s
Apparent Declination-62° 15' 24"
Sunlit
Object is in daylight
Visualization observer readout
Local Sidereal Time07:37:21
Azimuth215.852° SW
Elevation-38.053°
Doppler factor1
Orbital elements
Apogee altitude803.102 km
Perigee altitude786.922 km
Semi-major axis7,173.149 km
Eccentricity0.0011278
Inclination99.8292°
RAAN256.1433°
Arg. of periapsis324.088°
True anomaly36.02977°
Mean anomaly35.9538°
Eccentric anomaly35.99177°
Mean motion3.57255 °/min
BSTAR0.00013066
Orbital period100.77 mins
Loading maneuver chart data...
Loading historical data...
Loading historical data...
Loading historical data...
Loading historical data...
Loading historical data...
Loading historical data...
Loading historical data...
Other satellites on launch #31 in the year 1964 (1964-06-18 UTC)

THOR AGENA D R/B Visibility forecast

Observer location: undefined°, undefined

Span
Click to sort rows by Start time (UTC) header in descending order
Start Az.
Max El. time (UTC)
Max El. Az.
Max El.
End time (UTC)
End Az.
5 mins2025-01-15 14:32:53.617Z93.233° ESE2025-01-15 14:34:53.617Z67.889° E16.814°2025-01-15 14:37:53.617Z28.217° NE
8 mins2025-01-15 16:10:53.617Z182.584° SSW2025-01-15 16:13:53.617Z231.731° WSW40.037°2025-01-15 16:18:53.617Z335.787° NNW
8 mins2025-01-16 04:25:53.617Z39.655° NE2025-01-16 04:28:53.617Z99.855° ESE34.994°2025-01-16 04:33:53.617Z172.772° S
6 mins2025-01-16 06:05:53.617Z330.458° NNW2025-01-16 06:07:53.617Z300.321° NW21.61°2025-01-16 06:11:53.617Z247.677° W
|